FENGYUN 1C DEB, 30959

Orbit data source: Space-Track

FENGYUN 1C DEB, 30959 is space debris in SSO originally from a launch on Mon, 10 May 1999 UTC launched from the Taiyaun Space Center, China (TSC). Fengyun 1C debris stems from the Chinese weather satellite Fengyun-1C, which was intentionally destroyed by a Chinese anti-satellite missile in 2007. This event dramatically increased the amount of space debris, with thousands of trackable fragments posing hazards to satellites and human spaceflight. The Fengyun 1C debris cloud has become a focal point in discussions about space sustainability and the need for international regulations to prevent the creation of new debris.

Loading next visibility...
Identifier
30959, 1999-025BAZ
Orbit
SSO
Country
Flag of CNCN / PRC
Related business
Manufacturer
Unknown
Mission
Spacecraft
Bus & Motor
Unknown
Mass
Unknown
Launch date (UTC)
1999-05-10 (27 years ago)
Launch vehicle
Unknown
Launch site
Taiyaun Space Center, China (TSC)
Object type
Payload
Rocket body
Debris
Shape & HBR
Unknown shape, 0.1 m
Radar Cross Section
Small (<0.1 m²)

Expand to show TLE details & history
Last TLE update: 4 days ago

TLE from 4 days ago
0 FENGYUN 1C DEB
1 30959U 99025BAZ 26059.11429080  .00008690  00000-0  27857-2 0  9992
2 30959  99.6935  22.4487 0051868 347.2744  12.7127 14.38997235614984
Epoch: 2026-02-28T02:44Z
TLE epoch observation values (Epoch: 2026-02-28T02:44:34.725Z)
Latitude
-0°
Longitude
-176.63704°
Altitude
728.597 km
Speed
7.51 km/s
True Right ascension
01h 29m 47s
True Declination
0° 00' 00"
Sunlit
Object was in daylight at epoch
Visualization orbit readout
Latitude
Unknown
Longitude
Unknown
Altitude
Unknown
Speed
Unknown
Apparent Right ascension
Unknown
Apparent Declination
Unknown
Sunlit
N/A
Visualization observer readout
Local Sidereal Time
04:17:07
Azimuth
Unknown
Elevation
Unknown
Doppler factor
Unknown
Orbital elements
Apogee altitude
796.016 km
Perigee altitude
721.978 km
Semi-major axis
7,137.134 km
Eccentricity
0.00519
Inclination
99.6935°
RAAN
22.4487°
Arg. of periapsis
347.2744°
True anomaly
12.84433°
Mean anomaly
12.7127°
Eccentric anomaly
12.77843°
Mean motion
3.59963 °/min
Orbital period
100.01 mins
BSTAR
0.0027857
Loading maneuver chart data...
Computing Atmospheric mass density...

Documentation

Showing up to 5 results
|